Weather History for MMCZ - October, 2012

Change the Weather History Date:

Sunday, October 14, 2012

  Actual Average Record
Temperature  
Mean Temperature 75 °F -  
Max Temperature 82 °F 87 °F 89 °F (1997)
Min Temperature 68 °F 76 °F 66 °F (2013)
Cooling Degree Days 10    
Growing Degree Days 25 (Base 50)    
Moisture  
Dew Point 71 °F    
Average Humidity 89    
Maximum Humidity 100    
Minimum Humidity 70    
Precipitation  
Precipitation 1.75 in - - ()
Sea Level Pressure  
Sea Level Pressure 29.94 in    
Wind  
Wind Speed 2 mph ()    
Max Wind Speed 12 mph    
Max Gust Speed -    
Visibility 7.1 miles    
Events      
Averages and records for this station are not official NWS values.
T = Trace of Precipitation, MM = Missing Value Source: Averaged Metar Reports

Daily Weather History Graph

Daily Weather History Graph

Search for Another Location

Airport or City:

Trip Planner

Search our weather history database for the weather conditions in past years. The results will help you decide how hot, cold, wet, or windy it might be!

Date:

Astronomy

Oct. 14, 2012 Rise Set
Actual Time 6:42 AM CDT 6:24 PM CDT
Civil Twilight 6:20 AM CDT 6:46 PM CDT
Nautical Twilight 5:54 AM CDT 7:12 PM CDT
Astronomical Twilight 5:28 AM CDT 7:37 PM CDT
Moon 5:43 AM CDT (10/14) 5:45 PM CDT (10/14)
Length of Visible Light 12h 26m
Length of Day
11h 41m
Waning Crescent, 1% of the Moon is Illuminated
Oct 14
Waning Crescent
Oct 15
New
Oct 21
First Quarter
Oct 29
Full
Nov 6
Last Quarter

Hourly Weather History & Observations

Time (CDT) Temp. Heat Index Dew Point Humidity Pressure Visibility Wind Dir Wind Speed Gust Speed Precip Events Conditions
12:50 AM 71.6 °F - 69.8 °F 94% 29.94 in 6.0 mi Calm Calm - N/A   Mostly Cloudy
1:40 AM 71.6 °F - 71.6 °F 100% 29.95 in 7.0 mi Calm Calm - N/A   Scattered Clouds
2:48 AM 71.6 °F - 71.6 °F 100% 29.94 in 7.0 mi Calm Calm - N/A   Scattered Clouds
3:46 AM 71.6 °F - 71.6 °F 100% 29.96 in 7.0 mi Calm Calm - N/A   Scattered Clouds
4:51 AM 71.6 °F - 71.6 °F 100% 29.93 in 7.0 mi Calm Calm - N/A   Scattered Clouds
5:41 AM 69.8 °F - 69.8 °F 100% 29.94 in 7.0 mi Calm Calm - N/A   Scattered Clouds
6:50 AM 68.0 °F - 68.0 °F 100% 29.92 in 7.0 mi Calm Calm - N/A   Scattered Clouds
7:40 AM 69.8 °F - 69.8 °F 100% 29.96 in 7.0 mi Calm Calm - N/A   Scattered Clouds
8:44 AM 78.8 °F - 73.4 °F 83% 29.97 in 8.0 mi NE 4.6 mph - N/A   Scattered Clouds
9:40 AM 80.6 °F 84.6 °F 71.6 °F 74% 30.01 in 8.0 mi ENE 11.5 mph - N/A   Scattered Clouds
10:42 AM 80.6 °F 84.6 °F 71.6 °F 74% 29.98 in 8.0 mi North 9.2 mph - N/A   Scattered Clouds
11:41 AM 82.4 °F 87.2 °F 71.6 °F 70% 29.97 in 8.0 mi North 8.1 mph - N/A   Scattered Clouds
12:45 PM 75.2 °F - 71.6 °F 89% 29.93 in 7.0 mi Calm Calm - N/A   Mostly Cloudy
1:47 PM 78.8 °F - 73.4 °F 83% 29.92 in 7.0 mi NE 5.8 mph - N/A   Mostly Cloudy
2:40 PM 77.0 °F - 73.4 °F 89% 29.91 in 7.0 mi Calm Calm - N/A   Mostly Cloudy
3:55 PM 80.6 °F 85.4 °F 73.4 °F 79% 29.93 in 7.0 mi NE 5.8 mph - N/A   Mostly Cloudy
4:50 PM 78.8 °F - 73.4 °F 83% 29.90 in 7.0 mi ENE 9.2 mph - N/A   Mostly Cloudy
5:47 PM 77.0 °F - 73.4 °F 89% 29.90 in 7.0 mi NNE 3.5 mph - N/A   Mostly Cloudy
6:46 PM 75.2 °F - 71.6 °F 89% 29.86 in 7.0 mi NNE 3.5 mph - N/A   Mostly Cloudy
7:51 PM 75.2 °F - 71.6 °F 89% 29.91 in 7.0 mi Calm Calm - N/A   Scattered Clouds
8:42 PM 75.2 °F - 71.6 °F 89% 29.93 in 7.0 mi Calm Calm - N/A   Scattered Clouds
9:40 PM 75.2 °F - 69.8 °F 83% 29.97 in 7.0 mi Calm Calm - N/A   Scattered Clouds
10:41 PM 71.6 °F - 69.8 °F 94% 29.93 in 7.0 mi Calm Calm - N/A   Scattered Clouds
11:40 PM 69.8 °F - 68.0 °F 94% 29.93 in 7.0 mi Calm Calm - N/A   Scattered Clouds